VE7VT Weather Reports


Display with metric or nautical units.
time (UTC)temp
F
wind
direction
speed
MPH
gust
MPH
rain 1hr
in
rain 24hr
in
rain mn
in
humidity
%
barometer
mb
20260503181518 74 91 1.0 4.0 0.00 0.00 0.00 42 1014.5
20260503180537 74 77 2.0 4.0 0.00 0.00 0.00 42 1014.6
20260503175517 74 298 1.0 4.0 0.00 0.00 0.00 40 1014.6
20260503174518 73 85 2.0 5.0 0.00 0.00 0.00 39 1014.6
20260503173518 72 94 2.0 5.0 0.00 0.00 0.00 40 1014.7
20260503172518 72 89 2.0 4.0 0.00 0.00 0.00 42 1014.8
20260503171516 71 89 2.0 4.0 0.00 0.00 0.00 44 1014.9
20260503170515 70 91 1.0 3.0 0.00 0.00 0.00 46 1014.9
20260503150518 66 189 2.0 3.0 0.00 0.00 0.00 52 1015.4
20260503130516 54 47 2.0 4.0 0.00 0.00 0.00 68 1015.1
20260503110516 56 340 2.0 5.0 0.00 0.00 0.00 66 1015.1
20260503081517 58 116 1.0 3.0 0.00 0.00 0.00 66 1015.0
20260503080517 58 157 2.0 4.0 0.00 0.00 0.00 67 1015.0
20260503072518 59 229 2.0 3.0 0.00 0.00 0.00 65 1014.8
20260503071518 60 251 2.0 3.0 0.00 0.00 0.00 65 1014.8
20260503070518 61 260 2.0 3.0 0.00 0.00 0.00 62 1014.8
20260503054516 63 255 2.0 3.0 0.00 0.00 0.00 60 1014.4
20260503053557 63 255 2.0 3.0 0.00 0.00 0.00 60 1014.4
20260503052516 63 215 2.0 3.0 0.00 0.00 0.00 59 1014.4
20260503051536 64 262 2.0 4.0 0.00 0.00 0.00 58 1014.3
20260503050516 64 250 2.0 4.0 0.00 0.00 0.00 57 1014.3
20260503045517 65 266 2.0 4.0 0.00 0.00 0.00 55 1014.3
20260503044517 66 183 2.0 3.0 0.00 0.00 0.00 54 1014.2
20260503043517 66 226 1.0 2.0 0.00 0.00 0.00 53 1014.2
20260503042517 67 274 2.0 2.0 0.00 0.00 0.00 52 1014.1
20260503041518 67 276 2.0 2.0 0.00 0.00 0.00 52 1014.0
20260503040518 67 288 2.0 3.0 0.00 0.00 0.00 51 1013.9
20260503035518 67 283 2.0 2.0 0.00 0.00 0.00 51 1013.8
20260503034518 68 285 2.0 3.0 0.00 0.00 0.00 50 1013.8
20260503033516 69 274 3.0 5.0 0.00 0.00 0.00 48 1013.7
20260503032515 69 284 2.0 3.0 0.00 0.00 0.00 47 1013.6
20260503031516 70 279 2.0 3.0 0.00 0.00 0.00 45 1013.6
20260503030516 71 273 2.0 2.0 0.00 0.00 0.00 43 1013.6
20260503025516 71 278 2.0 3.0 0.00 0.00 0.00 42 1013.5
20260503024517 72 284 2.0 4.0 0.00 0.00 0.00 42 1013.4
20260503023516 72 287 2.0 4.0 0.00 0.00 0.00 41 1013.5
20260503022516 73 288 2.0 3.0 0.00 0.00 0.00 40 1013.5
20260503021517 73 291 2.0 4.0 0.00 0.00 0.00 40 1013.6
20260503020517 73 292 2.0 4.0 0.00 0.00 0.00 40 1013.6
20260503015517 75 287 3.0 5.0 0.00 0.00 0.00 38 1013.7
20260503014518 76 285 2.0 5.0 0.00 0.00 0.00 37 1013.8
20260503013518 77 289 2.0 5.0 0.00 0.00 0.00 37 1013.9
20260503012518 78 282 1.0 4.0 0.00 0.00 0.00 37 1014.0
20260503011518 77 277 1.0 4.0 0.00 0.00 0.00 37 1014.0
20260503010518 78 286 1.0 6.0 0.00 0.00 0.00 36 1014.0
20260503005538 78 291 1.0 3.0 0.00 0.00 0.00 36 1014.1
20260503004516 77 289 2.0 5.0 0.00 0.00 0.00 37 1014.1
20260503003515 77 287 2.0 8.0 0.00 0.00 0.00 37 1014.2
20260503002516 76 292 3.0 9.0 0.00 0.00 0.00 38 1014.3
20260503001516 77 288 2.0 8.0 0.00 0.00 0.00 38 1014.4
20260503000536 77 281 2.0 6.0 0.00 0.00 0.00 38 1014.5
20260502235536 77 292 3.0 8.0 0.00 0.00 0.00 37 1014.6
20260502234516 77 284 2.0 7.0 0.00 0.00 0.00 37 1014.6
20260502233517 77 288 2.0 6.0 0.00 0.00 0.00 38 1014.7
20260502232516 76 284 3.0 7.0 0.00 0.00 0.00 38 1014.8
20260502231517 77 295 2.0 6.0 0.00 0.00 0.00 38 1014.9
20260502230517 77 283 3.0 8.0 0.00 0.00 0.00 37 1015.0
20260502225518 77 284 2.0 5.0 0.00 0.00 0.00 37 1015.2
20260502224538 76 286 2.0 6.0 0.00 0.00 0.00 38 1015.2
20260502223517 75 297 3.0 7.0 0.00 0.00 0.00 40 1015.4
20260502222518 75 295 3.0 8.0 0.00 0.00 0.00 41 1015.5
20260502221558 76 295 2.0 5.0 0.00 0.00 0.00 38 1015.6
20260502220518 76 285 2.0 5.0 0.00 0.00 0.00 38 1015.7
20260502215518 75 318 1.0 4.0 0.00 0.00 0.00 39 1015.8
20260502214516 74 295 2.0 5.0 0.00 0.00 0.00 41 1015.9
20260502213516 74 300 2.0 5.0 0.00 0.00 0.00 42 1016.1
20260502212536 74 286 2.0 7.0 0.00 0.00 0.00 41 1016.1
20260502211516 73 293 2.0 5.0 0.00 0.00 0.00 43 1016.2
20260502210516 73 287 4.0 10.0 0.00 0.00 0.00 43 1016.3
20260502205516 74 282 3.0 6.0 0.00 0.00 0.00 48 1016.3
20260502204516 74 289 2.0 6.0 0.00 0.00 0.00 47 1016.5
20260502203517 74 293 2.0 5.0 0.00 0.00 0.00 46 1016.6
20260502202517 74 291 2.0 7.0 0.00 0.00 0.00 44 1016.6
20260502201517 74 294 2.0 5.0 0.00 0.00 0.00 45 1016.7
20260502200517 74 297 3.0 6.0 0.00 0.00 0.00 43 1016.8
20260502195518 74 297 2.0 6.0 0.00 0.00 0.00 44 1017.0
20260502194518 75 68 1.0 6.0 0.00 0.00 0.00 48 1017.1
20260502193518 74 80 2.0 4.0 0.00 0.00 0.00 51 1017.1
20260502192518 74 337 2.0 4.0 0.00 0.00 0.00 51 1017.2
20260502191538 72 84 2.0 4.0 0.00 0.00 0.00 53 1017.2
20260502190518 71 83 2.0 6.0 0.00 0.00 0.00 54 1017.3
20260502185515 70 84 3.0 5.0 0.00 0.00 0.00 54 1017.4
20260502184515 70 292 3.0 6.0 0.00 0.00 0.00 50 1017.4
20260502183516 71 290 2.0 4.0 0.00 0.00 0.00 52 1017.5
20260502182516 70 300 2.0 4.0 0.00 0.00 0.00 52 1017.5